Погода в Межозерном

Россия / Челябинская область     54°08′43″N   59°22′38″E
темп.,
°C
ветер,
м/с
пор.,
м/с
влажн.,
%
обл.,
%
осадки,
мм/ч
давл.,
гПа
погр.,
м
10 мая, пн
пн1023:00+11сз22685 0.0 101815
02:00+10с22705 0.0 101913
05:00+9ссз22702 0.0 102010
08:00+13ссв46570 0.0 1021322
11:00+18св57430 0.0 10211373
14:00+20св66345 0.0 10212209
17:00+19всв66335 0.0 10212367
20:00+15в48495 0.0 1022171
11 мая, вт
вт1123:00+11св22560 0.0 102517
02:00+9ссв22620 0.0 102517
05:00+7с22670 0.0 102711
08:00+12всв11530 0.0 1028220
11:00+16вюв32365 0.0 10281202
14:00+19юв21285 0.0 10271690
17:00+20вюв1125100 0.0 10271720
20:00+16ююв223898 0.0 102816
12 мая, ср
ср1223:00+13юз1139100 0.0 102910
02:00+12з1143100 0.0 102910
05:00+10з11484 0.0 102910
08:00+15з22410 0.0 1030185
11:00+20зюз22300 0.0 10291177
14:00+23зюз11245 0.0 10291827
17:00+23ссз1222100 0.0 10281841
20:00+19ю113352 0.0 102811
13 мая, чт
чт1323:00+15зсз22414 0.0 102911
02:00+13сз22534 0.0 102910
05:00+12зсз22615 0.0 102910
08:00+17сз225354 0.0 1029164
11:00+22с23415 0.0 10281686
14:00+25с12345 0.0 10272202
17:00+25всв023223 0.0 10262371
20:00+22всв3447100 0.0 102680
14 мая, пт
пт1423:00+18с22553 0.0 102721
02:00+16ссз11625 0.0 102711
05:00+14сз11653 0.0 102810
08:00+19зсз11530 0.0 1028178
11:00+24юз12361 0.0 10271276
14:00+26юз33314 0.0 10252636
17:00+26ююз432916 0.0 10241998
20:00+22з23445 0.0 102456